ORBCOMM FM117 [+] (41188 NORAD) Tracking and Keplerian Element Data

This shows tracking and keplerian element data for the satellite.

Feedback or suggestion? Click here.




ElementValue
Catalog41188
NameORBCOMM FM117 [+]
Epoch Orbit15584
Epoch Day315.3910995
Epoch Year2018
RAAN279.1411
Inclination47.001
Eccentricity9.57E-05
Argument of Perigee99.2852
Mean Anonmoly260.814
Mean Motion14.54745515
Decay Rate-2.4E-07
L11 41188U 15081K 18315.39109950 -.00000024 00000-0 32723-4 0 9999
L22 41188 47.0010 279.1411 0000957 99.2852 260.8140 14.54745515155842

Live tracking and technical data element details for ORBCOMM FM117 [+] (NORAD 41188). ORBCOMM FM117 [+] can be tracked NOW for your location showing map with azimuth and elevation plus other details from your city location.

Track the satellite on the map from your city or location and see movement details for azimuth, elevation, latitude, longitude, range, height, and movement on the map or in text.







IsCatalogInMostPopularTable: catalog: 41188, numindb: 114
Update: records affected: 1



GetName: 41188 ORBCOMM FM117 [+]

Hit Count: updated at: Mon, 12 Nov 2018 17:40:50 GMT